STARLINK-3696, 51965

Orbit data source: Space-Track

STARLINK-3696, 51965 is a payload satellite owned by SpaceX/Seattle (US) in LEO that was launched on Wed, 09 Mar 2022 UTC via an FALCON 9 launch vehicle from the Air Force Eastern Test Range (AFETR). Payload-class satellites include a variety of spacecraft equipped with specific instruments for various scientific and technological missions. These include communications satellites like Starlink; space stations such as the ISS; scientific satellites like the Hubble; Earth observation satellites from companies like Planet Labs, Umbra, and HawkEye 360; GPS; miniature CubeSats for education and research; and military/defense satellites.

Loading next visibility...
Identifier
51965, 2022-025K
Orbit
LEO
Country
Flag of USUS
Related business
Manufacturer
SpaceX/Seattle
Mission
Operational Commercial Communications
Bus & Motor
STARLINK, Unknown motor
Mass
297 kg wet, ~275 kg dry
Launch date (UTC)
2022-03-09 (4 years ago)
Launch vehicle
FALCON 9
Launch site
Air Force Eastern Test Range (AFETR)
Object type
Payload
Rocket body
Debris
Shape & HBR
Box + 1 Pan, 10.1 m
Radar Cross Section
13.562 m², Large (>1 m²)

Expand to show TLE details & history
Last TLE update: 1 day ago

TLE from 1 day ago
0 STARLINK-3696
1 51965U 22025K   25346.61530281 -.00002519  00000-0 -15025-3 0  9998
2 51965  53.0559  66.7355 0001469 104.8422 255.2730 15.06399987207727
Epoch: 2025-12-12T14:46Z
TLE epoch observation values (Epoch: 2025-12-12T14:46:02.162Z)
Latitude
-0.00002°
Longitude
123.6721°
Altitude
548.35 km
Speed
7.589 km/s
True Right ascension
04h 26m 56s
True Declination
0° 00' 00"
Sunlit
Object was in full shadow at epoch
Visualization orbit readout
Latitude
Unknown
Longitude
Unknown
Altitude
Unknown
Speed
Unknown
Apparent Right ascension
Unknown
Apparent Declination
Unknown
Sunlit
N/A
Visualization observer readout
Local Sidereal Time
13:07:37
Azimuth
Unknown
Elevation
Unknown
Doppler factor
Unknown
Orbital elements
Apogee altitude
548.499 km
Perigee altitude
546.465 km
Semi-major axis
6,925.619 km
Eccentricity
0.00015
Inclination
53.0559°
RAAN
66.7355°
Arg. of periapsis
104.8422°
True anomaly
255.25672°
Mean anomaly
255.273°
Eccentric anomaly
255.26486°
Mean motion
3.76578 °/min
Orbital period
95.6 mins
BSTAR
-0.00015025
Loading maneuver chart data...
Computing Atmospheric mass density...
Loading historical data...
Loading historical data...
Loading historical data...
Loading historical data...
Loading historical data...
Loading historical data...
Loading historical data...

Documentation

Showing up to 5 results
|